Location: Beuvrequen
(50.8014°N, 1.6652°E)
Time: 16:18:04
(UTC+00:00)

Cosmos 1844 - Pass Details

Date: 01 June 2022
Orbit: 821 x 869 km, 70.9° (Epoch: 29 June)

Event Time Altitude Azimuth Distance (km) Brightness Sun altitude
Rises 21:15:44 0° 329° (NNW) 3,466 9.2 -9.4°
Reaches altitude 10° 21:18:13 10° 329° (NNW) 2,526 7.8 -9.6°
Maximum altitude 21:24:04 86° 241° (WSW) 877 3.8 -10.2°
Enters shadow 21:29:11 14° 154° (SSE) 2,258 5.3 -10.6°
